User: anonymous   Login
Location: Berg
(47.2344°N, 9.5296°E)
Time: 17:27:42
(UTC+00:00)
Language:

Okean O Rocket - Orbit

View from above orbital plane
View from above orbital plane
View from above satellite
View from above satellite

Ground track
Ground track

The orbit data is extracted from the following two-line orbital elements,

1 25861U 99039B   21110.02124519  .00000060  00000-0  15721-4 0  9997
2 25861  98.2077 124.2500 0014344 251.9180 162.0109 14.78633496173060
Epoch (UTC): 20 April 2021 00:30:35
Eccentricity: 0.0014344
inclination: 98.2077°
perigee height: 623 km
apogee height: 644 km
right ascension of ascending node: 124.2500°
argument of perigee: 251.9180°
revolutions per day: 14.78633496
mean anomaly at epoch: 162.0109°
orbit number at epoch: 17306

The dashed part of the orbit path shows where the satellite is in the earth's shadow,  

DLR